Hourly Data Report for October 29, 2014

All times are specified in Local Standard Time (LST). Add 1 hour to adjust for Daylight Saving Time where and when it is observed.

BAKER LAKE A
NUNAVUT

64°17'56.000" N
96°04'40.000" W
18.60 m
2300503
71926
YBK

Download Data

Hourly Data (October 2014)
Hourly Data Report for October 29, 2014
Temp Definition
°C
Dew Point Temp Definition
°C
Rel Hum Definition
%
Wind Dir Definition
10's deg

Wind Spd Definition
km/h
Visibility Definition
km
Stn Press Definition
kPa
Hmdx Definition


Wind Chill Definition


Weather Definition


TIME
00:00 Legend Double Dagger -10.7 -12.2 89 18 9 24.1 101.67   -16 Snow
01:00 Legend Double Dagger -9.6 -11.1 89 15 15 24.1 101.61   -16 LegendNANA
02:00 Legend Double Dagger -10.1 -11.7 88 15 17 24.1 101.58   -17 LegendNANA
03:00 Legend Double Dagger -10.1 -11.6 89 14 17 24.1 101.53   -17 Mostly Cloudy
04:00 Legend Double Dagger -9.9 -11.4 89 14 16 24.1 101.48   -17 Snow
05:00 Legend Double Dagger -9.5 -11.0 89 14 12 24.1 101.43   -15 Snow
06:00 Legend Double Dagger -9.0 -11.1 85 15 21 24.1 101.38   -17 Snow
07:00 Legend Double Dagger -8.4 -10.5 85 14 18 24.1 101.34   -15 Snow
08:00 Legend Double Dagger -8.1 -10.5 83 14 19 32.2 101.31   -15 Snow
09:00 Legend Double Dagger -7.6 -10.2 82 15 16 24.1 101.31   -14 Snow
10:00 Legend Double Dagger -7.3 -9.3 86 13 14 4.0 101.29   -13 Snow
11:00 Legend Double Dagger -7.0 -8.8 87 13 12 4.8 101.30   -12 Snow
12:00 Legend Double Dagger -7.2 -9.2 86 12 7 6.4 101.33   -11 Snow
13:00 Legend Double Dagger -9.9 -12.0 85 5 23 16.1 101.36   -18 Snow
14:00 Legend Double Dagger -10.7 -12.9 84 5 21 8.1 101.42   -19 Snow
15:00 Legend Double Dagger -11.8 -14.1 83 4 17 24.1 101.49   -19 Snow
16:00 Legend Double Dagger -12.4 -14.7 83 3 20 24.1 101.57   -21 Snow
17:00 Legend Double Dagger -11.6 -14.1 82 2 24 24.1 101.68   -21 Snow
18:00 Legend Double Dagger -11.4 -13.9 82 2 34 24.1 101.77   -22 Snow
19:00 Legend Double Dagger -11.2 -13.7 82 3 18 24.1 101.90   -19 Snow
20:00 Legend Double Dagger -11.1 -13.4 83 1 24 24.1 101.98   -20 Snow
21:00 Legend Double Dagger -12.2 -15.1 79 36 21 24.1 102.07   -21 Snow
22:00 Legend Double Dagger -15.6 -18.3 80 35 26 24.1 102.13   -26 Snow
23:00 Legend Double Dagger -17.0 -19.7 80 33 17 24.1 102.17   -26 LegendNANA

Notes on Data Quality.

Legend

  • E = Estimated
  • M = Missing
  • NA = Not Available
  • ‡ = Partner data that is not subject to review by the National Climate Archives
Date modified: